This demonstration page uses our WeatherBlox Daily Observations layout. Learn more.

Left ArrowRight Arrow

44.89941, -97.11507

Hourly Observations for July 9, 2020

Temp ( °F °C ) Dew Point ( °F °C ) Humidity (%) Winds ( mph kmh ) Pressure ( in mb ) Visibility ( mi km ) Precip ( " mm )
12:38 am 00:38 Cloudy with Nearby Thunderstorms 72 22.2 61 16.1 68 68 SE 18 30 29.71 1006 8 13 0.04 1.02
12:53 am 00:53 Cloudy with Nearby Thunderstorms 69 20.6 63 17.2 81 81 SSE 12 19 29.79 1009 10 16 0.04 1.02
1:03 am 01:03 Cloudy with Light Rain 74 23.3 60 15.6 62 62 SSE 20 31 29.73 1007 10 16 0.00 0.00
1:15 am 01:15 Windy with Storms Likely 73 22.8 57 13.9 57 57 S 28 44 29.71 1006 10 16 0.01 0.25
1:37 am 01:37 Mostly Cloudy with Light Rain 78 25.6 52 11.1 40 40 ESE 16 26 29.69 1005 10 16 0.02 0.51
1:53 am 01:53 Mostly Cloudy 78 25.6 52 11.1 40 40 SE 17 28 29.70 1006 10 16 0.02 0.51
2:53 am 02:53 Clear 71 21.7 57 13.9 61 61 NNW 5 7 29.74 1007 10 16 0.00 0.00
3:53 am 03:53 Clear 74 23.3 61 16.1 64 64 WNW 13 20 29.73 1007 10 16 0.00 0.00
4:53 am 04:53 Clear 71 21.7 63 17.2 76 76 W 22 35 29.72 1007 10 16 0.00 0.00
5:53 am 05:53 Sunny 70 21.1 64 17.8 82 82 W 14 22 29.75 1007 10 16 0.00 0.00
6:53 am 06:53 Sunny 70 21.1 65 18.3 84 84 NW 7 11 29.76 1008 10 16 0.00 0.00
7:53 am 07:53 Sunny 72 22.2 67 19.4 84 84 NNW 5 7 29.80 1009 10 16 0.00 0.00
8:53 am 08:53 Sunny 73 22.8 67 19.4 81 81 N 6 9 29.84 1011 10 16 0.00 0.00
9:53 am 09:53 Sunny 75 23.9 66 18.9 74 74 NNW 9 15 29.85 1011 10 16 0.00 0.00
10:53 am 10:53 Sunny 77 25 64 17.8 64 64 N 8 13 29.85 1011 10 16 0.00 0.00
11:53 am 11:53 Sunny 78 25.6 63 17.2 60 60 NNE 8 13 29.85 1011 10 16 0.00 0.00
12:53 pm 12:53 Sunny 80 26.7 55 12.8 42 42 NNW 12 19 29.87 1012 10 16 0.00 0.00
1:53 pm 13:53 Sunny 80 26.7 54 12.2 41 41 NW 7 11 29.88 1012 10 16 0.00 0.00
2:53 pm 14:53 Sunny 81 27.2 55 12.8 41 41 undefined N/A 29.88 1012 10 16 0.00 0.00
3:53 pm 15:53 Sunny 82 27.8 56 13.3 41 41 NW 8 13 29.86 1011 10 16 0.00 0.00
4:53 pm 16:53 Sunny 81 27.2 57 13.9 44 44 WNW 8 13 29.87 1012 10 16 0.00 0.00
5:53 pm 17:53 Sunny 81 27.2 55 12.8 41 41 WNW 12 19 29.87 1012 10 16 0.00 0.00
6:53 pm 18:53 Sunny 81 27.2 56 13.3 42 42 W 12 19 29.88 1012 10 16 0.00 0.00
7:53 pm 19:53 Sunny 79 26.1 58 14.4 49 49 W 7 11 29.89 1012 10 16 0.00 0.00
8:53 pm 20:53 Sunny 74 23.3 61 16.1 64 64 W 5 7 29.90 1013 10 16 0.00 0.00
9:53 pm 21:53 Clear 70 21.1 61 16.1 73 73 W 7 11 29.92 1013 10 16 0.00 0.00
10:53 pm 22:53 Clear 69 20.6 61 16.1 76 76 W 6 9 29.93 1014 10 16 0.00 0.00
11:53 pm 23:53 Clear 67 19.4 59 15 76 76 Calm 29.93 1014 10 16 0.00 0.00

Powered by AerisWeather